Weather History for KCMI - August, 2014

Change the Weather History Date:

Sunday, August 3, 2014

  Actual Average Record
Temperature  
Mean Temperature 71 °F 73 °F  
Max Temperature 83 °F 83 °F 94 °F (2010)
Min Temperature 59 °F 63 °F 58 °F (2008)
Degree Days  
Heating Degree Days 0 0  
Month to date heating degree days 0 0  
Since 1 June heating degree days 7 19  
Since 1 July heating degree days 7 2  
Cooling Degree Days 6 8  
Month to date cooling degree days 18 24  
Year to date cooling degree days 610 621  
Since 1 June cooling degree days 458 529  
Growing Degree Days 20 (Base 50)    
Moisture  
Dew Point 62 °F    
Average Humidity 72    
Maximum Humidity 97    
Minimum Humidity 47    
Precipitation  
Precipitation 0.00 in 0.08 in 0.43 in (2003)
Month to date precipitation 0.00 0.26  
Year to date precipitation 26.86 23.93  
Sea Level Pressure  
Sea Level Pressure 30.14 in    
Wind  
Wind Speed 2 mph (WNW)    
Max Wind Speed 8 mph    
Max Gust Speed 12 mph    
Visibility 8 miles    
Events      
T = Trace of Precipitation, MM = Missing Value Source: NWS Daily Summary

Daily Weather History Graph

Daily Weather History Graph

Search for Another Location

Airport or City:

Trip Planner

Search our weather history database for the weather conditions in past years. The results will help you decide how hot, cold, wet, or windy it might be!

Date:

Astronomy

Aug. 03, 2014 Rise Set
Actual Time 5:53 AM CDT 8:04 PM CDT
Civil Twilight 5:23 AM CDT 8:34 PM CDT
Nautical Twilight 4:46 AM CDT 9:11 PM CDT
Astronomical Twilight 4:05 AM CDT 9:51 PM CDT
Moon 1:13 PM CDT (8/3) No Moon Set
Length of Visible Light 15h 11m
Length of Day
14h 11m
Waxing Crescent, 47% of the Moon is Illuminated
Aug 3
Waxing Crescent
Aug 3
First Quarter
Aug 10
Full
Aug 17
Last Quarter
Aug 25
New

Hourly Weather History & Observations

Time (CDT) Temp. Heat Index Dew Point Humidity Pressure Visibility Wind Dir Wind Speed Gust Speed Precip Events Conditions
12:53 AM 63.0 °F - 60.1 °F 90% 30.14 in 6.0 mi Calm Calm - N/A   Clear
1:53 AM 62.1 °F - 60.1 °F 93% 30.13 in 4.0 mi Calm Calm - N/A   Clear
3:53 AM 60.1 °F - 59.0 °F 96% 30.14 in 4.0 mi West 3.5 mph - N/A   Clear
4:53 AM 62.1 °F - 60.1 °F 93% 30.14 in 8.0 mi ENE 3.5 mph - N/A   Clear
5:53 AM 59.0 °F - 57.9 °F 96% 30.15 in 6.0 mi WNW 4.6 mph - N/A   Clear
6:53 AM 63.0 °F - 60.1 °F 90% 30.16 in 6.0 mi NW 3.5 mph - N/A   Clear
7:53 AM 69.1 °F - 63.0 °F 81% 30.17 in 9.0 mi Calm Calm - N/A   Clear
8:53 AM 73.0 °F - 64.0 °F 73% 30.19 in 10.0 mi WNW 3.5 mph - N/A   Clear
9:53 AM 77.0 °F - 64.9 °F 66% 30.19 in 10.0 mi West 3.5 mph - N/A   Clear
10:53 AM 79.0 °F - 66.0 °F 64% 30.18 in 10.0 mi NW 4.6 mph - N/A   Clear
11:53 AM 80.1 °F 81.7 °F 64.0 °F 58% 30.17 in 10.0 mi WNW 4.6 mph - N/A   Clear
12:53 PM 82.0 °F 83.1 °F 63.0 °F 52% 30.15 in 10.0 mi Calm Calm - N/A   Clear
1:53 PM 82.9 °F 83.3 °F 61.0 °F 47% 30.14 in 10.0 mi Calm Calm - N/A   Clear
2:53 PM 82.0 °F 83.4 °F 64.0 °F 54% 30.12 in 10.0 mi NW 4.6 mph - N/A   Partly Cloudy
3:53 PM 82.9 °F 83.7 °F 62.1 °F 49% 30.11 in 10.0 mi Calm Calm - N/A   Partly Cloudy
4:53 PM 82.0 °F 83.1 °F 63.0 °F 52% 30.10 in 10.0 mi WSW 5.8 mph - N/A   Clear
5:53 PM 82.0 °F 83.0 °F 62.1 °F 51% 30.09 in 10.0 mi Calm Calm - N/A   Partly Cloudy
6:53 PM 80.1 °F 81.9 °F 64.9 °F 60% 30.09 in 10.0 mi West 3.5 mph - N/A   Clear
7:53 PM 75.9 °F - 66.0 °F 71% 30.09 in 8.0 mi WSW 3.5 mph - N/A   Clear
9:53 PM 66.9 °F - 62.1 °F 84% 30.11 in 8.0 mi Calm Calm - N/A   Clear
10:53 PM 66.0 °F - 63.0 °F 90% 30.11 in 7.0 mi Calm Calm - N/A   Clear